Location: Brno
(49.2000°N, 16.6330°E)
Time: 22:41:09
(UTC+02:00)

Cosmos 332 Rocket - Visible Passes

Search period start: 28 May 2016 00:00
Search period end: 07 June 2016 00:00
Orbit: 683 x 704 km, 74.0° (Epoch: 28 May)

Date Brightness Start Highest point End Pass type
(mag) Time Alt. Az. Time Alt. Az. Time Alt. Az.
28 May 5.5 00:58:34 10° N 01:02:44 28° NE 01:06:52 10° ESE visible
28 May 4.2 02:38:48 10° NW 02:43:23 44° WSW 02:45:55 23° SSW visible
29 May 6.4 00:00:23 10° NNE 00:02:51 14° NE 00:05:20 10° ENE visible
29 May 3.9 01:39:26 10° NNW 01:44:14 72° ENE 01:47:15 23° SSE visible
29 May 5.5 03:21:13 10° WNW 03:24:07 16° W 03:25:55 13° WSW visible
30 May 5.3 00:40:30 10° N 00:44:46 30° NE 00:48:38 12° ESE visible
30 May 4.3 02:20:51 10° NW 02:25:21 40° WSW 02:27:17 27° SSW visible
30 May 6.3 23:42:12 10° N 23:44:57 15° NE 23:47:40 10° E visible
31 May 3.8 01:21:25 10° NNW 01:26:15 79° ENE 01:28:44 29° SSE visible
31 May 5.6 03:03:28 10° WNW 03:06:02 14° W 03:07:24 13° WSW visible
01 Jun 5.2 00:22:27 10° N 00:26:49 33° ENE 00:30:13 15° ESE visible
01 Jun 4.5 02:02:54 10° NW 02:07:18 37° WSW 02:08:53 28° SW visible
01 Jun 6.2 23:24:03 10° N 23:27:01 16° NE 23:29:58 10° E visible
02 Jun 3.7 01:03:24 10° NNW 01:08:15 87° ENE 01:10:25 33° SSE visible
02 Jun 5.7 02:45:47 10° WNW 02:47:58 13° W 02:49:06 12° WSW visible
03 Jun 5.0 00:04:24 10° N 00:08:51 36° ENE 00:11:59 17° ESE visible
03 Jun 4.7 01:44:58 10° NW 01:49:16 33° WSW 01:50:40 28° SW visible
03 Jun 6.0 23:05:55 10° N 23:09:06 17° NE 23:12:15 10° E visible
04 Jun 3.7 00:45:24 10° NNW 00:50:14 86° WSW 00:52:15 35° SSE visible
04 Jun 5.9 02:28:12 10° WNW 02:29:53 12° W 02:30:56 11° WSW visible
04 Jun 4.8 23:46:21 10° N 23:50:52 39° ENE 23:53:52 19° ESE visible
05 Jun 4.8 01:27:02 10° NW 01:31:13 30° WSW 01:32:33 26° SW visible
05 Jun 5.9 22:47:48 10° N 22:51:09 18° NE 22:54:30 10° E visible
06 Jun 3.7 00:27:24 10° NNW 00:32:14 78° WSW 00:34:13 35° SSE visible
06 Jun 6.0 02:10:56 10° W 02:11:48 10° W 02:12:41 10° WSW visible
06 Jun 4.6 23:28:18 10° NNW 23:32:54 42° ENE 23:35:54 20° ESE visible
